Year,Month,Day,Hour,Minute,Value (Times are PST for temperature in C)
2019,05,26,00,00,10.60
2019,05,26,00,01,10.60
2019,05,26,00,02,10.60
2019,05,26,00,03,10.60
2019,05,26,00,04,10.60
2019,05,26,00,05,10.50
2019,05,26,00,06,10.50
2019,05,26,00,07,10.50
2019,05,26,00,08,10.50
2019,05,26,00,09,10.50
2019,05,26,00,10,10.50
2019,05,26,00,11,10.50
2019,05,26,00,12,10.40
2019,05,26,00,13,10.40
2019,05,26,00,14,10.40
2019,05,26,00,15,10.40
2019,05,26,00,16,10.40
2019,05,26,00,17,10.40
2019,05,26,00,18,10.40
2019,05,26,00,19,10.40
2019,05,26,00,20,10.40
2019,05,26,00,21,10.40
2019,05,26,00,22,10.40
2019,05,26,00,23,10.40
2019,05,26,00,24,10.40
2019,05,26,00,25,10.40
2019,05,26,00,26,10.40
2019,05,26,00,27,10.40
2019,05,26,00,28,10.40
2019,05,26,00,29,10.40
2019,05,26,00,30,10.40
2019,05,26,00,31,10.40
2019,05,26,00,32,10.40
2019,05,26,00,33,10.40
2019,05,26,00,34,10.30
2019,05,26,00,35,10.30
2019,05,26,00,36,10.30
2019,05,26,00,37,10.30
2019,05,26,00,38,10.30
2019,05,26,00,39,10.40
2019,05,26,00,40,10.30
2019,05,26,00,41,10.40
2019,05,26,00,42,10.30
2019,05,26,00,43,10.30
2019,05,26,00,44,10.30
2019,05,26,00,45,10.30
2019,05,26,00,46,10.30
2019,05,26,00,47,10.30
2019,05,26,00,48,10.30
2019,05,26,00,49,10.30
2019,05,26,00,50,10.30
2019,05,26,00,51,10.30
2019,05,26,00,52,10.20
2019,05,26,00,53,10.20
2019,05,26,00,54,10.20
2019,05,26,00,55,10.20
2019,05,26,00,56,10.10
2019,05,26,00,57,10.10
2019,05,26,00,58,10.10
2019,05,26,00,59,10.10
2019,05,26,01,00,10.10
2019,05,26,01,01,10.10
2019,05,26,01,02,10.10
2019,05,26,01,03,10.10
2019,05,26,01,04,10.00
2019,05,26,01,05,10.00
2019,05,26,01,06,9.90
2019,05,26,01,07,9.90
2019,05,26,01,08,9.90
2019,05,26,01,09,9.90
2019,05,26,01,10,9.80
2019,05,26,01,11,9.80
2019,05,26,01,12,9.80
2019,05,26,01,13,9.70
2019,05,26,01,14,9.70
2019,05,26,01,15,9.70
2019,05,26,01,16,9.70
2019,05,26,01,17,9.60
2019,05,26,01,18,9.60
2019,05,26,01,19,9.60
2019,05,26,01,20,9.60
2019,05,26,01,21,9.50
2019,05,26,01,22,9.50
2019,05,26,01,23,9.50
2019,05,26,01,24,9.50
2019,05,26,01,25,9.40
2019,05,26,01,26,9.40
2019,05,26,01,27,9.40
2019,05,26,01,28,9.40
2019,05,26,01,29,9.30
2019,05,26,01,30,9.30
2019,05,26,01,31,9.30
2019,05,26,01,32,9.30
2019,05,26,01,33,9.30
2019,05,26,01,34,9.20
2019,05,26,01,35,9.20
2019,05,26,01,36,9.20
2019,05,26,01,37,9.20
2019,05,26,01,38,9.20
2019,05,26,01,39,9.20
2019,05,26,01,40,9.20
2019,05,26,01,41,9.20
2019,05,26,01,42,9.20
2019,05,26,01,43,9.20
2019,05,26,01,44,9.10
2019,05,26,01,45,9.10
2019,05,26,01,46,9.10
2019,05,26,01,47,9.10
2019,05,26,01,48,9.10
2019,05,26,01,49,9.10
2019,05,26,01,50,9.10
2019,05,26,01,51,9.00
2019,05,26,01,52,9.00
2019,05,26,01,53,9.00
2019,05,26,01,54,9.00
2019,05,26,01,55,8.90
2019,05,26,01,56,8.90
2019,05,26,01,57,8.90
2019,05,26,01,58,8.90
2019,05,26,01,59,8.90
2019,05,26,02,00,8.90
2019,05,26,02,01,8.80
2019,05,26,02,02,8.80
2019,05,26,02,03,8.80
2019,05,26,02,04,8.80
2019,05,26,02,05,8.80
2019,05,26,02,06,8.80
2019,05,26,02,07,8.80
2019,05,26,02,08,8.80
2019,05,26,02,09,8.80
2019,05,26,02,10,8.80
2019,05,26,02,11,8.80
2019,05,26,02,12,8.80
2019,05,26,02,13,8.80
2019,05,26,02,14,8.80
2019,05,26,02,15,8.80
2019,05,26,02,16,8.80
2019,05,26,02,17,8.80
2019,05,26,02,18,8.80
2019,05,26,02,19,8.80
2019,05,26,02,20,8.80
2019,05,26,02,21,8.80
2019,05,26,02,22,8.80
2019,05,26,02,23,8.80
2019,05,26,02,24,8.80
2019,05,26,02,25,8.80
2019,05,26,02,26,8.80
2019,05,26,02,27,8.80
2019,05,26,02,28,8.80
2019,05,26,02,29,8.80
2019,05,26,02,30,8.80
2019,05,26,02,31,8.80
2019,05,26,02,32,8.80
2019,05,26,02,33,8.80
2019,05,26,02,34,8.80
2019,05,26,02,35,8.80
2019,05,26,02,36,8.70
2019,05,26,02,37,8.70
2019,05,26,02,38,8.70
2019,05,26,02,39,8.70
2019,05,26,02,40,8.70
2019,05,26,02,41,8.60
2019,05,26,02,42,8.60
2019,05,26,02,43,8.60
2019,05,26,02,44,8.60
2019,05,26,02,45,8.60
2019,05,26,02,46,8.60
2019,05,26,02,47,8.60
2019,05,26,02,48,8.60
2019,05,26,02,49,8.50
2019,05,26,02,50,8.50
2019,05,26,02,51,8.50
2019,05,26,02,52,8.50
2019,05,26,02,53,8.40
2019,05,26,02,54,8.40
2019,05,26,02,55,8.40
2019,05,26,02,56,8.40
2019,05,26,02,57,8.40
2019,05,26,02,58,8.40
2019,05,26,02,59,8.40
2019,05,26,03,00,8.40
2019,05,26,03,01,8.40
2019,05,26,03,02,8.40
2019,05,26,03,03,8.40
2019,05,26,03,04,8.30
2019,05,26,03,05,8.30
2019,05,26,03,06,8.30
2019,05,26,03,07,8.30
2019,05,26,03,08,8.30
2019,05,26,03,09,8.30
2019,05,26,03,10,8.30
2019,05,26,03,11,8.30
2019,05,26,03,12,8.30
2019,05,26,03,13,8.30
2019,05,26,03,14,8.30
2019,05,26,03,15,8.30
2019,05,26,03,16,8.20
2019,05,26,03,17,8.20
2019,05,26,03,18,8.20
2019,05,26,03,19,8.20
2019,05,26,03,20,8.20
2019,05,26,03,21,8.20
2019,05,26,03,22,8.30
2019,05,26,03,23,8.20
2019,05,26,03,24,8.20
2019,05,26,03,25,8.20
2019,05,26,03,26,8.20
2019,05,26,03,27,8.20
2019,05,26,03,28,8.20
2019,05,26,03,29,8.20
2019,05,26,03,30,8.20
2019,05,26,03,31,8.10
2019,05,26,03,32,8.10
2019,05,26,03,33,8.10
2019,05,26,03,34,8.10
2019,05,26,03,35,8.10
2019,05,26,03,36,8.00
2019,05,26,03,37,8.00
2019,05,26,03,38,8.00
2019,05,26,03,39,8.00
2019,05,26,03,40,7.90
2019,05,26,03,41,7.90
2019,05,26,03,42,7.90
2019,05,26,03,43,7.80
2019,05,26,03,44,7.80
2019,05,26,03,45,7.80
2019,05,26,03,46,7.80
2019,05,26,03,47,7.80
2019,05,26,03,48,7.80
2019,05,26,03,49,7.90
2019,05,26,03,50,7.90
2019,05,26,03,51,7.90
2019,05,26,03,52,8.00
2019,05,26,03,53,8.00
2019,05,26,03,54,8.00
2019,05,26,03,55,8.00
2019,05,26,03,56,8.00
2019,05,26,03,57,8.00
2019,05,26,03,58,8.00
2019,05,26,03,59,8.00
2019,05,26,04,00,8.00
2019,05,26,04,01,8.00
2019,05,26,04,02,8.00
2019,05,26,04,03,8.00
2019,05,26,04,04,7.90
2019,05,26,04,05,7.90
2019,05,26,04,06,7.90
2019,05,26,04,07,7.90
2019,05,26,04,08,7.90
2019,05,26,04,09,8.00
2019,05,26,04,10,8.00
2019,05,26,04,11,8.10
2019,05,26,04,12,8.00
2019,05,26,04,13,8.10
2019,05,26,04,14,8.10
2019,05,26,04,15,8.00
2019,05,26,04,16,8.00
2019,05,26,04,17,8.00
2019,05,26,04,18,8.00
2019,05,26,04,19,8.00
2019,05,26,04,20,8.00
2019,05,26,04,21,8.00
2019,05,26,04,22,8.00
2019,05,26,04,23,8.00
2019,05,26,04,24,8.00
2019,05,26,04,25,8.00
2019,05,26,04,26,8.00
2019,05,26,04,27,8.00
2019,05,26,04,28,8.00
2019,05,26,04,29,8.00
2019,05,26,04,30,8.00
2019,05,26,04,31,8.00
2019,05,26,04,32,8.00
2019,05,26,04,33,8.00
2019,05,26,04,34,8.00
2019,05,26,04,35,8.00
2019,05,26,04,36,8.00
2019,05,26,04,37,8.00
2019,05,26,04,38,8.00
2019,05,26,04,39,8.10
2019,05,26,04,40,8.10
2019,05,26,04,41,8.10
2019,05,26,04,42,8.10
2019,05,26,04,43,8.10
2019,05,26,04,44,8.10
2019,05,26,04,45,8.10
2019,05,26,04,46,8.10
2019,05,26,04,47,8.10
2019,05,26,04,48,8.20
2019,05,26,04,49,8.20
2019,05,26,04,50,8.20
2019,05,26,04,51,8.20
2019,05,26,04,52,8.20
2019,05,26,04,53,8.20
2019,05,26,04,54,8.20
2019,05,26,04,55,8.20
2019,05,26,04,56,8.20
2019,05,26,04,57,8.20
2019,05,26,04,58,8.20
2019,05,26,04,59,8.20
2019,05,26,05,00,8.20
2019,05,26,05,01,8.20
2019,05,26,05,02,8.20
2019,05,26,05,03,8.20
2019,05,26,05,04,8.20
2019,05,26,05,05,8.20
2019,05,26,05,06,8.20
2019,05,26,05,07,8.20
2019,05,26,05,08,8.30
2019,05,26,05,09,8.30
2019,05,26,05,10,8.30
2019,05,26,05,11,8.30
2019,05,26,05,12,8.30
2019,05,26,05,13,8.30
2019,05,26,05,14,8.30
2019,05,26,05,15,8.30
2019,05,26,05,16,8.20
2019,05,26,05,17,8.20
2019,05,26,05,18,8.20
2019,05,26,05,19,8.20
2019,05,26,05,20,8.20
2019,05,26,05,21,8.10
2019,05,26,05,22,8.10
2019,05,26,05,23,8.00
2019,05,26,05,24,8.00
2019,05,26,05,25,7.90
2019,05,26,05,26,7.90
2019,05,26,05,27,7.90
2019,05,26,05,28,7.90
2019,05,26,05,29,7.90
2019,05,26,05,30,7.90
2019,05,26,05,31,7.90
2019,05,26,05,32,7.90
2019,05,26,05,33,7.90
2019,05,26,05,34,7.90
2019,05,26,05,35,7.80
2019,05,26,05,36,7.80
2019,05,26,05,37,7.80
2019,05,26,05,38,7.80
2019,05,26,05,39,7.80
2019,05,26,05,40,7.80
2019,05,26,05,41,7.80
2019,05,26,05,42,7.80
2019,05,26,05,43,7.80
2019,05,26,05,44,7.80
2019,05,26,05,45,7.80
2019,05,26,05,46,7.80
2019,05,26,05,47,7.80
2019,05,26,05,48,7.80
2019,05,26,05,49,7.70
2019,05,26,05,50,7.70
2019,05,26,05,51,7.70
2019,05,26,05,52,7.70
2019,05,26,05,53,7.70
2019,05,26,05,54,7.70
2019,05,26,05,55,7.70
2019,05,26,05,56,7.60
2019,05,26,05,57,7.60
2019,05,26,05,58,7.60
2019,05,26,05,59,7.60
2019,05,26,06,00,7.60
2019,05,26,06,01,7.60
2019,05,26,06,02,7.60
2019,05,26,06,03,7.60
2019,05,26,06,04,7.60
2019,05,26,06,05,7.60
2019,05,26,06,06,7.60
2019,05,26,06,07,7.60
2019,05,26,06,08,7.60
2019,05,26,06,09,7.60
2019,05,26,06,10,7.60
2019,05,26,06,11,7.60
2019,05,26,06,12,7.70
2019,05,26,06,13,7.70
2019,05,26,06,14,7.70
2019,05,26,06,15,7.70
2019,05,26,06,16,7.80
2019,05,26,06,17,7.80
2019,05,26,06,18,7.80
2019,05,26,06,19,7.80
2019,05,26,06,20,7.80
2019,05,26,06,21,7.80
2019,05,26,06,22,7.90
2019,05,26,06,23,7.90
2019,05,26,06,24,7.90
2019,05,26,06,25,7.90
2019,05,26,06,26,7.90
2019,05,26,06,27,8.00
2019,05,26,06,28,8.00
2019,05,26,06,29,8.00
2019,05,26,06,30,8.10
2019,05,26,06,31,8.10
2019,05,26,06,32,8.10
2019,05,26,06,33,8.20
2019,05,26,06,34,8.20
2019,05,26,06,35,8.20
2019,05,26,06,36,8.20
2019,05,26,06,37,8.20
2019,05,26,06,38,8.20
2019,05,26,06,39,8.20
2019,05,26,06,40,8.30
2019,05,26,06,41,8.30
2019,05,26,06,42,8.30
2019,05,26,06,43,8.30
2019,05,26,06,44,8.40
2019,05,26,06,45,8.40
2019,05,26,06,46,8.40
2019,05,26,06,47,8.50
2019,05,26,06,48,8.50
2019,05,26,06,49,8.50
2019,05,26,06,50,8.60
2019,05,26,06,51,8.60
2019,05,26,06,52,8.60
2019,05,26,06,53,8.70
2019,05,26,06,54,8.70
2019,05,26,06,55,8.70
2019,05,26,06,56,8.80
2019,05,26,06,57,8.80
2019,05,26,06,58,8.80
2019,05,26,06,59,8.90
2019,05,26,07,00,8.90
2019,05,26,07,01,8.90
2019,05,26,07,02,8.90
2019,05,26,07,03,9.00
2019,05,26,07,04,9.00
2019,05,26,07,05,9.10
2019,05,26,07,06,9.10
2019,05,26,07,07,9.10
2019,05,26,07,08,9.10
2019,05,26,07,09,9.20
2019,05,26,07,10,9.20
2019,05,26,07,11,9.20
2019,05,26,07,12,9.20
2019,05,26,07,13,9.20
2019,05,26,07,14,9.20
2019,05,26,07,15,9.30
2019,05,26,07,16,9.50
2019,05,26,07,17,9.60
2019,05,26,07,18,9.70
2019,05,26,07,19,9.70
2019,05,26,07,20,9.80
2019,05,26,07,21,9.80
2019,05,26,07,22,9.90
2019,05,26,07,23,9.90
2019,05,26,07,24,10.00
2019,05,26,07,25,10.10
2019,05,26,07,26,10.20
2019,05,26,07,27,10.20
2019,05,26,07,28,10.20
2019,05,26,07,29,10.20
2019,05,26,07,30,10.20
2019,05,26,07,31,10.20
2019,05,26,07,32,10.20
2019,05,26,07,33,10.30
2019,05,26,07,34,10.30
2019,05,26,07,35,10.30
2019,05,26,07,36,10.40
2019,05,26,07,37,10.50
2019,05,26,07,38,10.50
2019,05,26,07,39,10.60
2019,05,26,07,40,10.70
2019,05,26,07,41,10.70
2019,05,26,07,42,10.80
2019,05,26,07,43,10.90
2019,05,26,07,44,11.00
2019,05,26,07,45,11.00
2019,05,26,07,46,11.10
2019,05,26,07,47,11.20
2019,05,26,07,48,11.20
2019,05,26,07,49,11.30
2019,05,26,07,50,11.30
2019,05,26,07,51,11.40
2019,05,26,07,52,11.40
2019,05,26,07,53,11.40
2019,05,26,07,54,11.50
2019,05,26,07,55,11.50
2019,05,26,07,56,11.60
2019,05,26,07,57,11.60
2019,05,26,07,58,11.60
2019,05,26,07,59,11.70
2019,05,26,08,00,11.80
2019,05,26,08,01,11.90
2019,05,26,08,02,12.00
2019,05,26,08,03,12.10
2019,05,26,08,04,12.10
2019,05,26,08,05,12.20
2019,05,26,08,06,12.30
2019,05,26,08,07,12.30
2019,05,26,08,08,12.40
2019,05,26,08,09,12.40
2019,05,26,08,10,12.40
2019,05,26,08,11,12.40
2019,05,26,08,12,12.40
2019,05,26,08,13,12.40
2019,05,26,08,14,12.40
2019,05,26,08,15,12.50
2019,05,26,08,16,12.50
2019,05,26,08,17,12.60
2019,05,26,08,18,12.60
2019,05,26,08,19,12.70
2019,05,26,08,20,12.70
2019,05,26,08,21,12.80
2019,05,26,08,22,12.80
2019,05,26,08,23,12.80
2019,05,26,08,24,12.80
2019,05,26,08,25,12.90
2019,05,26,08,26,12.90
2019,05,26,08,27,13.00
2019,05,26,08,28,13.20
2019,05,26,08,29,13.30
2019,05,26,08,30,13.40
2019,05,26,08,31,13.40
2019,05,26,08,32,13.50
2019,05,26,08,33,13.60
2019,05,26,08,34,13.70
2019,05,26,08,35,13.70
2019,05,26,08,36,13.80
2019,05,26,08,37,13.80
2019,05,26,08,38,13.90
2019,05,26,08,39,14.00
2019,05,26,08,40,14.10
2019,05,26,08,41,14.10
2019,05,26,08,42,14.10
2019,05,26,08,43,14.20
2019,05,26,08,44,14.30
2019,05,26,08,45,14.30
2019,05,26,08,46,14.40
2019,05,26,08,47,14.40
2019,05,26,08,48,14.50
2019,05,26,08,49,14.60
2019,05,26,08,50,14.70
2019,05,26,08,51,14.70
2019,05,26,08,52,14.80
2019,05,26,08,53,15.00
2019,05,26,08,54,15.10
2019,05,26,08,55,15.10
2019,05,26,08,56,15.20
2019,05,26,08,57,15.20
2019,05,26,08,58,15.20
2019,05,26,08,59,15.20
2019,05,26,09,00,15.40
2019,05,26,09,01,15.50
2019,05,26,09,02,15.60
2019,05,26,09,03,15.70
2019,05,26,09,04,15.70
2019,05,26,09,05,15.90
2019,05,26,09,06,16.00
2019,05,26,09,07,16.10
2019,05,26,09,08,16.10
2019,05,26,09,09,16.10
2019,05,26,09,10,16.10
2019,05,26,09,11,16.00
2019,05,26,09,12,16.00
2019,05,26,09,13,16.00
2019,05,26,09,14,16.00
2019,05,26,09,15,15.90
2019,05,26,09,16,16.00
2019,05,26,09,17,16.10
2019,05,26,09,18,16.10
2019,05,26,09,19,16.00
2019,05,26,09,20,15.90
2019,05,26,09,21,15.80
2019,05,26,09,22,15.80
2019,05,26,09,23,15.80
2019,05,26,09,24,15.80
2019,05,26,09,25,15.80
2019,05,26,09,26,15.90
2019,05,26,09,27,15.90
2019,05,26,09,28,16.00
2019,05,26,09,29,16.00
2019,05,26,09,30,16.00
2019,05,26,09,31,16.00
2019,05,26,09,32,16.00
2019,05,26,09,33,16.10
2019,05,26,09,34,16.10
2019,05,26,09,35,16.20
2019,05,26,09,36,16.30
2019,05,26,09,37,16.40
2019,05,26,09,38,16.60
2019,05,26,09,39,16.70
2019,05,26,09,40,16.80
2019,05,26,09,41,16.90
2019,05,26,09,42,16.90
2019,05,26,09,43,16.90
2019,05,26,09,44,17.00
2019,05,26,09,45,17.00
2019,05,26,09,46,17.00
2019,05,26,09,47,16.90
2019,05,26,09,48,16.80
2019,05,26,09,49,16.80
2019,05,26,09,50,16.80
2019,05,26,09,51,16.80
2019,05,26,09,52,16.80
2019,05,26,09,53,16.80
2019,05,26,09,54,16.70
2019,05,26,09,55,16.60
2019,05,26,09,56,16.60
2019,05,26,09,57,16.60
2019,05,26,09,58,16.60
2019,05,26,09,59,16.60
2019,05,26,10,00,16.50
2019,05,26,10,01,16.50
2019,05,26,10,02,16.50
2019,05,26,10,03,16.50
2019,05,26,10,04,16.40
2019,05,26,10,05,16.50
2019,05,26,10,06,16.50
2019,05,26,10,07,16.50
2019,05,26,10,08,16.50
2019,05,26,10,09,16.50
2019,05,26,10,10,16.50
2019,05,26,10,11,16.60
2019,05,26,10,12,16.60
2019,05,26,10,13,16.60
2019,05,26,10,14,16.60
2019,05,26,10,15,16.70
2019,05,26,10,16,16.70
2019,05,26,10,17,16.70
2019,05,26,10,18,16.70
2019,05,26,10,19,16.70
2019,05,26,10,20,16.70
2019,05,26,10,21,16.80
2019,05,26,10,22,16.90
2019,05,26,10,23,17.10
2019,05,26,10,24,17.20
2019,05,26,10,25,17.30
2019,05,26,10,26,17.40
2019,05,26,10,27,17.40
2019,05,26,10,28,17.30
2019,05,26,10,29,17.30
2019,05,26,10,30,17.20
2019,05,26,10,31,17.20
2019,05,26,10,32,17.20
2019,05,26,10,33,17.20
2019,05,26,10,34,17.20
2019,05,26,10,35,17.20
2019,05,26,10,36,17.20
2019,05,26,10,37,17.30
2019,05,26,10,38,17.20
2019,05,26,10,39,17.30
2019,05,26,10,40,17.30
2019,05,26,10,41,17.40
2019,05,26,10,42,17.50
2019,05,26,10,43,17.50
2019,05,26,10,44,17.40
2019,05,26,10,45,17.40
2019,05,26,10,46,17.30
2019,05,26,10,47,17.30
2019,05,26,10,48,17.20
2019,05,26,10,49,17.30
2019,05,26,10,50,17.40
2019,05,26,10,51,17.40
2019,05,26,10,52,17.50
2019,05,26,10,53,17.60
2019,05,26,10,54,17.60
2019,05,26,10,55,17.60
2019,05,26,10,56,17.60
2019,05,26,10,57,17.70
2019,05,26,10,58,17.70
2019,05,26,10,59,17.70
2019,05,26,11,00,17.80
2019,05,26,11,01,17.80
2019,05,26,11,02,17.80
2019,05,26,11,03,17.80
2019,05,26,11,04,17.80
2019,05,26,11,05,17.70
2019,05,26,11,06,17.70
2019,05,26,11,07,17.80
2019,05,26,11,08,17.80
2019,05,26,11,09,17.80
2019,05,26,11,10,17.80
2019,05,26,11,11,17.90
2019,05,26,11,12,17.90
2019,05,26,11,13,18.00
2019,05,26,11,14,18.00
2019,05,26,11,15,18.00
2019,05,26,11,16,18.10
2019,05,26,11,17,18.20
2019,05,26,11,18,18.20
2019,05,26,11,19,18.20
2019,05,26,11,20,18.10
2019,05,26,11,21,18.00
2019,05,26,11,22,18.00
2019,05,26,11,23,18.00
2019,05,26,11,24,18.10
2019,05,26,11,25,18.10
2019,05,26,11,26,18.10
2019,05,26,11,27,18.10
2019,05,26,11,28,18.20
2019,05,26,11,29,18.20
2019,05,26,11,30,18.20
2019,05,26,11,31,18.20
2019,05,26,11,32,18.20
2019,05,26,11,33,18.20
2019,05,26,11,34,18.20
2019,05,26,11,35,18.10
2019,05,26,11,36,18.00
2019,05,26,11,37,18.00
2019,05,26,11,38,18.10
2019,05,26,11,39,18.10
2019,05,26,11,40,18.10
2019,05,26,11,41,18.10
2019,05,26,11,42,18.10
2019,05,26,11,43,18.10
2019,05,26,11,44,18.00
2019,05,26,11,45,17.90
2019,05,26,11,46,17.90
2019,05,26,11,47,17.90
2019,05,26,11,48,17.90
2019,05,26,11,49,17.80
2019,05,26,11,50,17.80
2019,05,26,11,51,17.80
2019,05,26,11,52,17.90
2019,05,26,11,53,17.90
2019,05,26,11,54,17.90
2019,05,26,11,55,17.90
2019,05,26,11,56,17.80
2019,05,26,11,57,17.70
2019,05,26,11,58,17.70
2019,05,26,11,59,17.70
2019,05,26,12,00,17.70
2019,05,26,12,01,17.70
2019,05,26,12,02,17.70
2019,05,26,12,03,17.70
2019,05,26,12,04,17.60
2019,05,26,12,05,17.60
2019,05,26,12,06,17.60
2019,05,26,12,07,17.60
2019,05,26,12,08,17.70
2019,05,26,12,09,17.80
2019,05,26,12,10,17.90
2019,05,26,12,11,18.10
2019,05,26,12,12,18.20
2019,05,26,12,13,18.30
2019,05,26,12,14,18.30
2019,05,26,12,15,18.30
2019,05,26,12,16,18.20
2019,05,26,12,17,18.10
2019,05,26,12,18,18.10
2019,05,26,12,19,18.10
2019,05,26,12,20,18.10
2019,05,26,12,21,18.00
2019,05,26,12,22,18.00
2019,05,26,12,23,17.90
2019,05,26,12,24,17.80
2019,05,26,12,25,17.70
2019,05,26,12,26,17.70
2019,05,26,12,27,17.70
2019,05,26,12,28,17.70
2019,05,26,12,29,17.70
2019,05,26,12,30,17.70
2019,05,26,12,31,17.70
2019,05,26,12,32,17.70
2019,05,26,12,33,17.70
2019,05,26,12,34,17.70
2019,05,26,12,35,17.70
2019,05,26,12,36,17.70
2019,05,26,12,37,17.70
2019,05,26,12,38,17.80
2019,05,26,12,39,17.80
2019,05,26,12,40,17.80
2019,05,26,12,41,17.90
2019,05,26,12,42,18.00
2019,05,26,12,43,18.10
2019,05,26,12,44,18.20
2019,05,26,12,45,18.30
2019,05,26,12,46,18.40
2019,05,26,12,47,18.50
2019,05,26,12,48,18.60
2019,05,26,12,49,18.50
2019,05,26,12,50,18.50
2019,05,26,12,51,18.40
2019,05,26,12,52,18.40
2019,05,26,12,53,18.40
2019,05,26,12,54,18.50
2019,05,26,12,55,18.50
2019,05,26,12,56,18.60
2019,05,26,12,57,18.70
2019,05,26,12,58,18.80
2019,05,26,12,59,18.90
2019,05,26,13,00,19.10
2019,05,26,13,01,19.20
2019,05,26,13,02,19.10
2019,05,26,13,03,19.00
2019,05,26,13,04,18.80
2019,05,26,13,05,18.60
2019,05,26,13,06,18.60
2019,05,26,13,07,18.50
2019,05,26,13,08,18.40
2019,05,26,13,09,18.30
2019,05,26,13,10,18.30
2019,05,26,13,11,18.20
2019,05,26,13,12,18.30
2019,05,26,13,13,18.30
2019,05,26,13,14,18.30
2019,05,26,13,15,18.30
2019,05,26,13,16,18.30
2019,05,26,13,17,18.30
2019,05,26,13,18,18.30
2019,05,26,13,19,18.40
2019,05,26,13,20,18.60
2019,05,26,13,21,18.70
2019,05,26,13,22,18.90
2019,05,26,13,23,19.00
2019,05,26,13,24,19.00
2019,05,26,13,25,19.00
2019,05,26,13,26,19.00
2019,05,26,13,27,19.00
2019,05,26,13,28,18.90
2019,05,26,13,29,18.80
2019,05,26,13,30,18.80
2019,05,26,13,31,18.80
2019,05,26,13,32,18.90
2019,05,26,13,33,19.10
2019,05,26,13,34,19.20
2019,05,26,13,35,19.20
2019,05,26,13,36,19.30
2019,05,26,13,37,19.30
2019,05,26,13,38,19.30
2019,05,26,13,39,19.30
2019,05,26,13,40,19.20
2019,05,26,13,41,19.20
2019,05,26,13,42,19.20
2019,05,26,13,43,19.20
2019,05,26,13,44,19.30
2019,05,26,13,45,19.30
2019,05,26,13,46,19.30
2019,05,26,13,47,19.40
2019,05,26,13,48,19.40
2019,05,26,13,49,19.50
2019,05,26,13,50,19.50
2019,05,26,13,51,19.50
2019,05,26,13,52,19.50
2019,05,26,13,53,19.40
2019,05,26,13,54,19.30
2019,05,26,13,55,19.20
2019,05,26,13,56,19.10
2019,05,26,13,57,18.90
2019,05,26,13,58,18.80
2019,05,26,13,59,18.80
2019,05,26,14,00,18.60
2019,05,26,14,01,18.60
2019,05,26,14,02,18.50
2019,05,26,14,03,18.40
2019,05,26,14,04,18.40
2019,05,26,14,05,18.40
2019,05,26,14,06,18.40
2019,05,26,14,07,18.40
2019,05,26,14,08,18.40
2019,05,26,14,09,18.50
2019,05,26,14,10,18.50
2019,05,26,14,11,18.60
2019,05,26,14,12,18.60
2019,05,26,14,13,18.70
2019,05,26,14,14,18.80
2019,05,26,14,15,18.90
2019,05,26,14,16,19.00
2019,05,26,14,17,18.90
2019,05,26,14,18,18.90
2019,05,26,14,19,18.90
2019,05,26,14,20,18.80
2019,05,26,14,21,18.80
2019,05,26,14,22,18.80
2019,05,26,14,23,18.80
2019,05,26,14,24,18.80
2019,05,26,14,25,18.80
2019,05,26,14,26,18.80
2019,05,26,14,27,18.70
2019,05,26,14,28,18.70
2019,05,26,14,29,18.60
2019,05,26,14,30,18.60
2019,05,26,14,31,18.50
2019,05,26,14,32,18.40
2019,05,26,14,33,18.40
2019,05,26,14,34,18.40
2019,05,26,14,35,18.50
2019,05,26,14,36,18.50
2019,05,26,14,37,18.40
2019,05,26,14,38,18.40
2019,05,26,14,39,18.50
2019,05,26,14,40,18.50
2019,05,26,14,41,18.50
2019,05,26,14,42,18.60
2019,05,26,14,43,18.70
2019,05,26,14,44,18.70
2019,05,26,14,45,18.70
2019,05,26,14,46,18.80
2019,05,26,14,47,18.90
2019,05,26,14,48,19.00
2019,05,26,14,49,19.10
2019,05,26,14,50,19.10
2019,05,26,14,51,19.20
2019,05,26,14,52,19.30
2019,05,26,14,53,19.40
2019,05,26,14,54,19.50
2019,05,26,14,55,19.60
2019,05,26,14,56,19.60
2019,05,26,14,57,19.60
2019,05,26,14,58,19.60
2019,05,26,14,59,19.60
2019,05,26,15,00,19.70
2019,05,26,15,01,19.70
2019,05,26,15,02,19.80
2019,05,26,15,03,19.80
2019,05,26,15,04,19.70
2019,05,26,15,05,19.70
2019,05,26,15,06,19.70
2019,05,26,15,07,19.80
2019,05,26,15,08,19.90
2019,05,26,15,09,20.00
2019,05,26,15,10,20.20
2019,05,26,15,11,20.30
2019,05,26,15,12,20.40
2019,05,26,15,13,20.40
2019,05,26,15,14,20.40
2019,05,26,15,15,20.40
2019,05,26,15,16,20.50
2019,05,26,15,17,20.70
2019,05,26,15,18,21.00
2019,05,26,15,19,21.20
2019,05,26,15,20,21.50
2019,05,26,15,21,21.60
2019,05,26,15,22,21.60
2019,05,26,15,23,21.70
2019,05,26,15,24,21.70
2019,05,26,15,25,21.80
2019,05,26,15,26,21.90
2019,05,26,15,27,21.90
2019,05,26,15,28,21.90
2019,05,26,15,29,21.80
2019,05,26,15,30,21.60
2019,05,26,15,31,21.50
2019,05,26,15,32,21.40
2019,05,26,15,33,21.40
2019,05,26,15,34,21.40
2019,05,26,15,35,21.50
2019,05,26,15,36,21.50
2019,05,26,15,37,21.50
2019,05,26,15,38,21.40
2019,05,26,15,39,21.40
2019,05,26,15,40,21.40
2019,05,26,15,41,21.30
2019,05,26,15,42,21.30
2019,05,26,15,43,21.30
2019,05,26,15,44,21.30
2019,05,26,15,45,21.40
2019,05,26,15,46,21.40
2019,05,26,15,47,21.30
2019,05,26,15,48,21.30
2019,05,26,15,49,21.30
2019,05,26,15,50,21.20
2019,05,26,15,51,21.20
2019,05,26,15,52,21.20
2019,05,26,15,53,21.30
2019,05,26,15,54,21.20
2019,05,26,15,55,21.20
2019,05,26,15,56,21.20
2019,05,26,15,57,21.30
2019,05,26,15,58,21.30
2019,05,26,15,59,21.30
2019,05,26,16,00,21.30
2019,05,26,16,01,21.30
2019,05,26,16,02,21.30
2019,05,26,16,03,21.30
2019,05,26,16,04,21.30
2019,05,26,16,05,21.50
2019,05,26,16,06,21.60
2019,05,26,16,07,21.70
2019,05,26,16,08,21.70
2019,05,26,16,09,21.80
2019,05,26,16,10,21.70
2019,05,26,16,11,21.80
2019,05,26,16,12,21.90
2019,05,26,16,13,22.00
2019,05,26,16,14,22.10
2019,05,26,16,15,22.20
2019,05,26,16,16,22.20
2019,05,26,16,17,22.30
2019,05,26,16,18,22.50
2019,05,26,16,19,22.60
2019,05,26,16,20,22.80
2019,05,26,16,21,22.80
2019,05,26,16,22,22.90
2019,05,26,16,23,23.00
2019,05,26,16,24,23.10
2019,05,26,16,25,23.20
2019,05,26,16,26,23.30
2019,05,26,16,27,23.40
2019,05,26,16,28,23.50
2019,05,26,16,29,23.60
2019,05,26,16,30,23.60
2019,05,26,16,31,23.70
2019,05,26,16,32,23.60
2019,05,26,16,33,23.60
2019,05,26,16,34,23.50
2019,05,26,16,35,23.40
2019,05,26,16,36,23.30
2019,05,26,16,37,23.30
2019,05,26,16,38,23.20
2019,05,26,16,39,23.20
2019,05,26,16,40,23.20
2019,05,26,16,41,23.20
2019,05,26,16,42,23.20
2019,05,26,16,43,23.30
2019,05,26,16,44,23.30
2019,05,26,16,45,23.40
2019,05,26,16,46,23.50
2019,05,26,16,47,23.60
2019,05,26,16,48,23.60
2019,05,26,16,49,23.50
2019,05,26,16,50,23.40
2019,05,26,16,51,23.20
2019,05,26,16,52,23.00
2019,05,26,16,53,22.80
2019,05,26,16,54,22.60
2019,05,26,16,55,22.30
2019,05,26,16,56,22.10
2019,05,26,16,57,22.00
2019,05,26,16,58,21.90
2019,05,26,16,59,21.90
2019,05,26,17,00,21.80
2019,05,26,17,01,21.80
2019,05,26,17,02,21.80
2019,05,26,17,03,21.80
2019,05,26,17,04,21.80
2019,05,26,17,05,21.80
2019,05,26,17,06,21.90
2019,05,26,17,07,22.00
2019,05,26,17,08,22.20
2019,05,26,17,09,22.40
2019,05,26,17,10,22.60
2019,05,26,17,11,22.70
2019,05,26,17,12,22.70
2019,05,26,17,13,22.60
2019,05,26,17,14,22.40
2019,05,26,17,15,22.30
2019,05,26,17,16,22.20
2019,05,26,17,17,22.20
2019,05,26,17,18,22.00
2019,05,26,17,19,22.00
2019,05,26,17,20,22.00
2019,05,26,17,21,22.00
2019,05,26,17,22,22.00
2019,05,26,17,23,22.10
2019,05,26,17,24,22.10
2019,05,26,17,25,22.10
2019,05,26,17,26,22.00
2019,05,26,17,27,21.90
2019,05,26,17,28,21.80
2019,05,26,17,29,21.80
2019,05,26,17,30,21.80
2019,05,26,17,31,21.80
2019,05,26,17,32,21.70
2019,05,26,17,33,21.60
2019,05,26,17,34,21.40
2019,05,26,17,35,21.40